Regional Weather Roundup
Issued by NWS

Home | Current Version | Previous Version | Graphics & Text | Print | Product List | Glossary On
Versions: 1 2 3 4 5 6 7 8 9 10 11 12 13 14 15 16 17 18 19 20 21 22 23 24 25 26 27 28 29 30 31 32 33 34 35 36 37 38 39 40 41 42 43 44 45 46 47 48 49 50
000
ASUS43 KDMX 220201
RWRIA

WEATHER ROUNDUP FOR IOWA
NATIONAL WEATHER SERVICE DES MOINES IA
900 PM CDT SAT OCT 21 2017

NOTE: "FAIR" INDICATES FEW OR NO CLOUDS BELOW 12,000 FEET WITH NO
SIGNIFICANT WEATHER AND/OR OBSTRUCTIONS TO VISIBILITY.

* - THESE STATIONS ARE NOT NWS STATIONS...THUS NOT UNDER NWS
QUALITY CONTROL.  THEY ALSO DO NOT REPORT WEATHER SUCH
AS PRECIPITATION OR FOG.

IAZ001>003-012>014-020>022-031>034-043>046-220300-
   NORTHWEST IOWA

CITY           SKY/WX    TMP DP  RH WIND       PRES   REMARKS
CHEROKEE *     CLOUDY    50  42  74 NW12      29.89R
DENISON *      CLOUDY    52  43  71 NW13      29.92R
LE MARS *      CLOUDY    48  39  71 CALM      29.92R
ORANGE CITY *  CLEAR     46  43  87 W5        29.91R
SHELDON *      CLEAR     48  39  71 W8G16     29.88R
SIOUX CITY     CLOUDY    46  39  76 W5        29.94R
SPENCER        LGT RAIN  51  42  71 W17       29.86R
STORM LAKE *   CLOUDY    50  41  71 NW16G23   29.89R
$$

IAZ055>058-069>071-079>083-090>094-220300-
   SOUTHWEST IOWA

CITY           SKY/WX    TMP DP  RH WIND       PRES   REMARKS
ATLANTIC *     CLOUDY    54  46  76 NW13G18   29.90R
AUDUBON *      CLOUDY    54  46  76 NW7       29.89R
CLARINDA *     CLOUDY    55  48  76 N9        29.92R
COUNCIL BLFS * CLOUDY    54  43  66 NW14      29.92R
CRESTON *      LGT RAIN  54  50  87 NW12G21   29.88R
HARLAN  *      CLOUDY    52  45  76 NW12G17   29.94R
LAMONI         TSTM      57  56  96 N6        29.84F
RED OAK *      CLOUDY    55  45  67 NW13      29.90R
SHENANDOAH *   CLOUDY    57  45  62 N8G16     29.92R
$$

IAZ047>049-059>061-072>074-084-220300-
   CENTRAL IOWA

CITY           SKY/WX    TMP DP  RH WIND       PRES   REMARKS
AMES           LGT RAIN  56  54  93 NW10      29.83R
ANKENY *       LGT RAIN  55  54  94 NW12G17   29.85F
BOONE *        LGT RAIN  55  52  88 W8        29.84R
CHARITON *     LGT RAIN  61  59  94 S17G29    29.85R
DES MOINES     TSTM      56  53  90 NW13      29.84R
GRINNELL*      RAIN      65  62  88 S14       29.83R
KNOXVILLE *    RAIN      63  59  88 W8G25     29.78R
MARSHALLTOWN   TSTM      64  60  87 SW16G25   29.80R FOG
NEWTON *       CLOUDY    63  61  94 S12       29.84R FOG
PELLA *        HVY RAIN  67  63  87 W17G23    29.82F
PERRY *        LGT RAIN  55  52  90 NW6       29.86R
$$

IAZ004>006-015-016-023>025-035-036-220300-
   NORTH CENTRAL IOWA

CITY           SKY/WX    TMP DP  RH WIND       PRES   REMARKS
ALGONA *       CLOUDY    54  48  82 W12       29.86R
CLARION *      CLOUDY    55  55 100 NW6       29.83R
ESTHERVILLE    CLOUDY    51  43  74 W8        29.84R
FORT DODGE *   CLOUDY    54  47  77 W7        29.86R
MASON CITY     LGT RAIN  55  52  89 NW12      29.83R FOG
FOREST CITY *  CLOUDY    54  50  87 W6        29.83R
WEBSTER CITY * DRIZZLE   55  52  88 NW9       29.83R
IOWA FALLS *   LGT RAIN  58  55  92 W9        29.83R
$$

IAZ007>011-017>019-026>030-037>042-050>054-066-220300-
   NORTHEAST IOWA

CITY           SKY/WX    TMP DP  RH WIND       PRES   REMARKS
CEDAR RAPIDS   CLOUDY    72  61  68 S14G23    29.81S
CHARLES CITY * HVY RAIN  61  61 100 SW7       29.79F
CLINTON *      CLEAR     70  61  73 S16       29.88F
DECORAH *      LGT RAIN  68  63  83 S13G18    29.78R
DUBUQUE        PTCLDY    69  60  73 S14       29.86S
MONTICELLO *   CLOUDY    72  63  73 S22       29.83S
OELWEIN *      CLOUDY    72  63  73 W22G30    29.81R
WATERLOO       LGT RAIN  65  62  90 S17G28    29.77S
$$

IAZ064-065-067-068-078-220300-
   EAST CENTRAL IOWA

CITY           SKY/WX    TMP DP  RH WIND       PRES   REMARKS
DAVENPORT      CLEAR     72  60  66 S16G22    29.89F
IOWA CITY      CLOUDY    73  62  68 S13       29.84F
MUSCATINE *    CLEAR     72  63  73 S17G23    29.85S
QUAD CITIES    CLEAR     72  60  66 S12       29.87F
$$

IAZ062-063-075>077-085>089-095>099-220300-
   SOUTHEAST IOWA

CITY           SKY/WX    TMP DP  RH WIND       PRES   REMARKS
BURLINGTON     MOCLDY    72  63  73 S12       29.88F
FAIRFIELD *    CLOUDY    73  61  64 S20G30    29.83S
FORT MADISON * PTCLDY    72  63  73 S14       29.89S
KEOKUK *       PTCLDY    73  61  64 SE9       29.88S
OSKALOOSA *    MOCLDY    71  61  71 S20G26    29.81R
OTTUMWA        CLOUDY    73  62  68 S22G31    29.82S
WASHINGTON *   CLOUDY    72  63  73 S15G22    29.84F
$$

ABBREVIATIONS USED IN REMARKS
   TC - TEMPERATURES IN CELSIUS
  WCI - WIND CHILL INDEX
   HX - HEAT INDEX
  VSB - VISIBILITY
$$




USA.gov is the U.S. government's official web portal to all federal, state and local government web resources and services.